This demonstration page uses our WeatherBlox Daily Observations layout. Learn more.

Hourly Observations for August 31, 2016

Temp ( °F °C ) Dew Point ( °F °C ) Humidity (%) Winds ( mph kmh ) Pressure ( in mb ) Visibility ( mi km ) Precip ( " mm )
12:15 am 00:15 Mostly Cloudy 67 19.6 65 18.6 94 94 Calm 30.12 1020 7 11.265408 0 0
12:35 am 00:35 Mostly Cloudy 67 19.7 66 18.7 94 94 Calm 30.12 1020 7 11.265408 0 0
12:55 am 00:55 Cloudy with Mist and Fog 67 19.4 65 18.4 94 94 Calm 30.12 1020 5 8.04672 0 0
1:15 am 01:15 Mostly Cloudy with Mist and Fog 67 19.5 65 18.5 94 94 Calm 30.12 1020 5 8.04672 0 0
1:35 am 01:35 Mostly Cloudy with Mist and Fog 67 19.5 66 18.7 95 95 Calm 30.12 1020 5 8.04672 0 0
1:55 am 01:55 Mostly Cloudy with Mist and Fog 67 19.3 65 18.5 95 95 Calm 30.12 1020 4 6.437376 0 0
2:15 am 02:15 Cloudy with Mist and Fog 67 19.3 65 18.5 95 95 Calm 30.12 1020 4 6.437376 0 0
2:35 am 02:35 Cloudy with Mist and Fog 67 19.3 65 18.5 95 95 Calm 30.12 1020 4 6.437376 0 0
2:55 am 02:55 Cloudy with Mist and Fog 67 19.2 65 18.5 96 96 Calm 30.12 1020 3 4.828032 0 0
3:15 am 03:15 Mostly Cloudy with Mist and Fog 67 19.3 65 18.6 96 96 Calm 30.12 1020 4 6.437376 0 0
3:35 am 03:35 Partly Cloudy with Light Drizzle 66 19.1 65 18.5 96 96 Calm 30.12 1020 3 4.828032 0 0
3:55 am 03:55 Mostly Cloudy with Rain 66 19 65 18.2 95 95 NNE 3 6 30.12 1020 2.5 4.02336 0 0
4:15 am 04:15 Mostly Cloudy with Light Drizzle 66 19 65 18.3 96 96 Calm 30.12 1020 2.5 4.02336 0 0
4:35 am 04:35 Cloudy with Mist and Fog 66 19 65 18.4 96 96 Calm 30.12 1020 1 1.609344 0 0
4:55 am 04:55 Cloudy with Light Drizzle 66 19 65 18.4 96 96 Calm 30.12 1020 1 1.609344 0 0
5:15 am 05:15 Cloudy with Rain 66 19 65 18.5 97 97 Calm 30.12 1020 1.5 2.414016 0 0
5:35 am 05:35 Cloudy with Light Rain 66 19 65 18.5 97 97 NE 3 6 30.12 1020 1.5 2.414016 0.01 0.254
5:55 am 05:55 Cloudy with Mist and Fog 66 19 65 18.5 97 97 NNE 5 7 30.12 1020 2.5 4.02336 0.01 0.254
6:15 am 06:15 Cloudy with Mist and Fog 66 19 65 18.5 97 97 NNE 5 7 30.12 1020 2.5 4.02336 0 0
6:35 am 06:35 Cloudy with Mist and Fog 66 19 65 18.5 97 97 NNE 5 7 30.12 1020 1.5 2.414016 0 0
6:55 am 06:55 Cloudy with Thunderstorms 66 19.1 65 18.5 96 96 NNE 3 6 30.12 1020 1.5 2.414016 0 0
7:15 am 07:15 Cloudy with Mist and Fog 67 19.2 65 18.6 96 96 NE 5 7 30.12 1020 2 3.218688 0 0
7:35 am 07:35 Cloudy with Mist and Fog 67 19.2 65 18.6 96 96 NE 5 7 30.12 1020 1.75 2.816352 0 0
7:55 am 07:55 Cloudy with Mist and Fog 67 19.2 65 18.6 96 96 NE 5 7 30.12 1020 1.25 2.01168 0 0
8:15 am 08:15 Cloudy with Mist and Fog 67 19.3 66 18.7 96 96 E 5 7 30.12 1020 1.25 2.01168 0 0
8:35 am 08:35 Cloudy with Mist and Fog 67 19.2 65 18.6 96 96 ENE 8 13 30.12 1020 1.25 2.01168 0 0
8:55 am 08:55 Cloudy with Mist and Fog 67 19.3 66 18.7 96 96 E 5 7 30.12 1020 1.5 2.414016 0 0
9:15 am 09:15 Cloudy with Mist and Fog 67 19.4 65 18.6 95 95 E 7 11 30.15 1021 1.5 2.414016 0 0
9:35 am 09:35 Cloudy with Mist and Fog 67 19.5 66 18.8 96 96 E 8 13 30.15 1021 1.5 2.414016 0 0
9:55 am 09:55 Cloudy with Light Rain 67 19.7 66 19 96 96 E 7 11 30.15 1021 2.5 4.02336 0 0
10:15 am 10:15 Cloudy with Mist and Fog 68 20.1 66 19 93 93 ENE 5 7 30.15 1021 5 8.04672 0 0
10:35 am 10:35 Cloudy 69 20.3 66 18.8 91 91 ENE 10 17 30.15 1021 7 11.265408 0 0
10:55 am 10:55 Cloudy 69 20.6 66 18.9 90 90 E 7 11 30.15 1021 10 16.09344 0 0
11:15 am 11:15 Cloudy 69 20.6 65 18.4 87 87 ESE 8 13 30.15 1021 10 16.09344 0 0
11:35 am 11:35 Cloudy 70 21 64 17.8 82 82 ESE 9 15 30.15 1021 10 16.09344 0 0
11:55 am 11:55 Cloudy 70 21.1 64 18 83 83 E 10 17 30.15 1021 10 16.09344 0 0
12:15 pm 12:15 Cloudy 71 21.8 64 18 79 79 E 10 17 30.12 1020 10 16.09344 0 0
12:35 pm 12:35 Mostly Cloudy 73 22.7 65 18.3 76 76 E 10 17 30.12 1020 10 16.09344 0 0
12:55 pm 12:55 Mostly Cloudy 73 22.5 65 18.4 78 78 ENE 9 15 30.12 1020 10 16.09344 0 0
1:15 pm 13:15 Mostly Cloudy 73 22.5 64 18 76 76 E 9 15 30.12 1020 10 16.09344 0 0
1:35 pm 13:35 Mostly Cloudy 73 22.6 65 18.1 76 76 E 7 11 30.12 1020 10 16.09344 0 0
1:55 pm 13:55 Partly Cloudy 75 23.9 65 18.4 71 71 ENE 8 13 30.09 1019 10 16.09344 0 0
2:15 pm 14:15 Partly Cloudy 75 23.9 64 17.9 69 69 E 9 15 30.09 1019 10 16.09344 0 0
2:35 pm 14:35 Mostly Cloudy 77 25.2 64 17.9 64 64 E 8 13 30.06 1018 10 16.09344 0 0
2:55 pm 14:55 Mostly Cloudy with Nearby Thunderstorms 77 25 63 17.2 62 62 ENE 13 20 30.06 1018 10 16.09344 0 0
3:15 pm 15:15 Partly Cloudy 76 24.6 62 16.4 60 60 E 12 19 30.09 1019 10 16.09344 0 0
3:35 pm 15:35 Partly Cloudy 77 25 61 15.9 57 57 ESE 10 17 30.06 1018 10 16.09344 0 0
3:55 pm 15:55 Partly Cloudy 77 25.1 62 16.7 60 60 E 6 9 30.06 1018 10 16.09344 0 0
4:15 pm 16:15 Mostly Cloudy 77 25 64 17.8 64 64 ENE 9 15 30.03 1017 10 16.09344 0 0
4:35 pm 16:35 Partly Cloudy 77 25.1 61 15.9 57 57 E 9 15 30.03 1017 10 16.09344 0 0
4:55 pm 16:55 Sunny 78 25.8 58 14.6 50 50 ESE 10 17 30.03 1017 10 16.09344 0 0
5:15 pm 17:15 Sunny 78 25.8 57 14.1 48 48 ESE 12 19 30.03 1017 10 16.09344 0 0
5:35 pm 17:35 Sunny 78 25.5 61 15.9 55 55 E 10 17 30.03 1017 10 16.09344 0 0
5:55 pm 17:55 Sunny 78 25.5 61 16 56 56 ESE 8 13 30.03 1017 10 16.09344 0 0
6:15 pm 18:15 Sunny 77 25.2 62 16.5 59 59 ESE 7 11 30.03 1017 10 16.09344 0 0
6:35 pm 18:35 Sunny 77 25 62 16.6 60 60 E 7 11 30.03 1017 10 16.09344 0 0
7:15 pm 19:15 Partly Cloudy 75 24 62 16.7 64 64 ESE 6 9 30.06 1018 10 16.09344 0 0
7:35 pm 19:35 Partly Cloudy 73 22.9 63 17.2 70 70 E 5 7 30.06 1018 10 16.09344 0 0
7:55 pm 19:55 Partly Cloudy 72 22.1 64 17.6 76 76 E 5 7 30.06 1018 10 16.09344 0 0
8:15 pm 20:15 Partly Cloudy 70 21 64 17.5 81 81 E 5 7 30.06 1018 10 16.09344 0 0
8:35 pm 20:35 Clear 67 19.6 63 17 85 85 E 5 7 30.09 1019 10 16.09344 0 0
8:55 pm 20:55 Clear 67 19.3 62 16.8 86 86 E 5 7 30.12 1020 10 16.09344 0 0
9:15 pm 21:15 Clear 65 18.5 60 15.8 84 84 E 6 9 30.12 1020 10 16.09344 0 0
9:35 pm 21:35 Clear 65 18.5 58 14.5 78 78 E 9 15 30.12 1020 10 16.09344 0 0
9:55 pm 21:55 Clear 64 17.5 57 13.8 79 79 E 7 11 30.15 1021 10 16.09344 0 0
10:15 pm 22:15 Clear 63 17 57 13.8 82 82 E 8 13 30.15 1021 10 16.09344 0 0
10:35 pm 22:35 Clear 62 16.9 56 13.5 81 81 E 6 9 30.15 1021 10 16.09344 0 0
10:55 pm 22:55 Clear 62 16.4 56 13.5 83 83 E 6 9 30.15 1021 10 16.09344 0 0
11:15 pm 23:15 Clear 60 15.7 56 13.2 85 85 Calm 30.18 1022 10 16.09344 0 0
11:35 pm 23:35 Clear 60 15.3 56 13.4 89 89 Calm 30.18 1022 10 16.09344 0 0
11:55 pm 23:55 Clear 60 15.3 56 13.1 87 87 E 5 7 30.18 1022 10 16.09344 0 0

Powered by AerisWeather